Vorticity
-24 -17 -21 8 23 37 34 45 20 31 -0 11 15 12 12 13 13 14 13 11 7 8 10 6 9 7 14 8 10 7 7 1 11 1 10 3 12 9 4 7 11 9 11 8
10 -5 -15 -31 4 35 -7 9 -4 1 -3 11 12 15 9 12 13 12 14 14 18 16 8 3 4 7 5 2 7 15 12 13 12 16 17 13 11 6 8 6 7 10 9 10
2 29 14 -26 -2 6 -17 9 22 4 19 17 19 15 13 9 10 11 12 13 15 19 24 25 18 11 8 9 13 6 2 -1 1 4 5 9 19 12 9 12 17 4 12 9
8 35 8 -2 -6 11 13 -9 -2 9 11 18 20 17 16 9 10 7 10 8 10 13 14 18 24 29 24 20 13 11 15 14 14 13 10 9 13 16 16 5 14 13 13 9
24 12 6 -3 -3 12 23 -2 -14 10 11 12 14 16 13 11 11 7 9 12 9 7 9 9 14 23 32 35 33 30 22 18 16 15 15 16 14 14 13 13 10 13 12 12
4 13 12 -1 12 17 23 9 -16 7 9 13 14 7 13 10 14 14 9 7 7 5 8 8 4 2 2 3 3 7 27 28 25 21 20 16 16 12 13 12 13 17 14 9
12 14 11 -19 7 20 20 -14 6 7 10 9 11 11 12 10 9 11 15 11 10 8 8 3 -3 5 4 2 3 8 11 5 15 22 19 21 21 16 13 12 11 14 17 16
10 15 11 -10 11 25 2 7 8 9 10 10 10 12 13 12 10 10 10 13 16 8 1 5 9 1 -5 0 2 -3 5 3 8 2 7 17 19 19 18 18 16 13 12 11
24 -15 -1 3 8 7 8 6 8 8 9 10 11 13 17 14 11 9 9 9 11 15 27 16 14 16 9 -1 6 6 2 8 7 12 5 6 11 15 15 13 12 14 14 16
19 18 8 4 7 3 5 7 8 8 10 9 9 13 14 17 16 14 11 10 12 11 11 12 15 19 27 20 8 2 5 6 11 7 9 6 8 9 11 13 14 12 13 14
13 9 9 9 7 4 8 8 9 8 7 9 10 11 13 17 19 17 15 13 9 11 11 10 11 11 14 18 23 18 11 10 11 15 12 10 12 6 7 10 10 12 13 14
10 5 4 4 9 10 10 8 9 10 10 10 10 11 13 16 16 18 17 17 14 10 12 10 11 9 15 18 21 25 17 9 15 6 4 12 12 8 9 12 12 10 10 12
12 13 15 8 11 10 10 9 9 9 11 11 12 11 14 15 15 18 20 20 17 13 12 12 10 11 9 14 19 21 22 16 9 7 9 13 13 10 13 9 13 11 13 12
15 15 8 12 12 10 11 11 11 10 10 9 10 11 12 15 15 15 16 17 17 15 14 15 14 13 11 16 20 21 20 21 19 14 7 10 11 9 11 8 9 10 11 10
10 14 13 12 12 11 9 10 10 10 10 9 10 11 12 15 15 17 16 15 17 16 13 13 15 14 13 15 20 21 20 21 20 15 16 11 10 9 7 8 8 9 10 9
11 12 12 11 11 11 10 10 11 11 11 12 11 11 12 14 14 13 14 14 13 15 14 13 13 14 15 16 20 22 24 22 19 20 16 17 15 12 11 11 12 12 12 13
14 16 13 13 13 13 12 11 10 10 10 10 12 12 12 12 11 11 13 14 15 15 16 15 13 14 13 14 18 21 23 22 24 24 23 21 17 16 17 14 16 20 19 19
10 10 11 11 11 12 11 11 10 10 11 11 10 12 12 12 12 13 14 14 14 14 12 14 14 15 14 13 19 20 21 23 21 25 24 23 23 22 24 21 23 23 22 19
11 11 11 11 11 11 12 11 10 10 10 11 10 10 11 12 10 11 10 13 14 15 15 15 15 14 14 14 18 20 22 23 24 22 21 23 22 23 25 23 20 16 15 15
10 10 11 11 11 11 12 11 11 10 10 10 11 10 10 11 11 10 10 11 12 15 13 14 15 16 15 15 18 17 16 16 17 19 19 16 13 10 10 11 12 13 13 11
12 12 11 12 11 12 12 12 12 11 10 11 11 10 10 10 9 10 10 11 14 15 13 12 15 17 16 16 16 16 12 11 12 12 11 11 12 12 13 12 10 12 15 16
16 15 14 13 12 11 12 14 12 12 11 10 11 11 9 8 7 9 12 12 10 12 14 12 15 17 17 17 17 16 14 11 10 12 13 12 12 11 12 13 13 14 13 12
12 13 15 15 15 14 12 12 13 13 12 11 10 11 12 12 12 12 11 11 12 13 12 13 14 14 16 17 17 12 9 9 10 10 11 10 10 11 13 13 11 10 11 12
8 9 10 10 11 11 12 13 11 11 12 13 12 11 10 10 12 12 12 12 12 13 12 12 13 14 14 15 15 15 15 15 14 13 13 13 13 12 12 13 13 13 11 10
5 6 6 6 7 8 9 11 11 11 11 10 12 12 11 11 10 12 12 12 11 13 13 13 12 13 13 13 13 13 11 10 11 12 12 12 12 12 11 10 11 12 13 13
10 7 5 6 6 6 6 7 9 10 11 12 11 11 12 12 12 11 11 12 13 13 13 13 12 12 12 12 11 9 9 10 10 9 9 9 9 10 11 11 11 10 9 8
22 21 15 14 11 8 7 7 8 8 8 10 12 12 11 12 12 13 12 10 12 13 14 13 13 12 12 11 10 9 9 9 8 8 9 9 9 9 9 8 8 7 7 7
Height
2898 2893 2892 2892 2886 2880 2876 2881 2884 2894 2895 2899 2901 2904 2905 2908 2911 2915 2917 2920 2925 2930 2934 2939 2944 2949 2955 2960 2966 2971 2976 2980 2983 2989 2992 2996 3000 3005 3009 3013 3017 3022 3026 3028
2901 2900 2900 2897 2890 2889 2886 2888 2890 2896 2897 2898 2899 2900 2903 2905 2909 2912 2915 2918 2922 2926 2930 2934 2938 2944 2949 2953 2957 2962 2967 2972 2975 2979 2984 2986 2989 2995 3001 3004 3008 3012 3015 3018
2901 2900 2899 2898 2902 2901 2901 2899 2897 2897 2901 2899 2898 2899 2901 2904 2907 2909 2912 2915 2918 2921 2924 2928 2931 2935 2938 2942 2948 2954 2958 2962 2966 2970 2974 2977 2979 2984 2989 2994 2997 3001 3004 3008
2900 2899 2909 2916 2912 2907 2903 2904 2904 2904 2902 2899 2898 2900 2901 2903 2905 2907 2909 2913 2916 2918 2919 2921 2923 2926 2930 2934 2937 2942 2946 2951 2955 2959 2963 2966 2969 2972 2977 2982 2986 2989 2994 2999
2903 2906 2912 2911 2911 2910 2908 2909 2907 2905 2903 2900 2899 2899 2900 2901 2903 2904 2905 2908 2912 2915 2916 2918 2920 2922 2924 2927 2930 2933 2936 2940 2944 2948 2951 2954 2956 2960 2964 2969 2975 2979 2983 2986
2908 2908 2915 2914 2909 2905 2906 2908 2907 2904 2901 2900 2898 2899 2899 2899 2900 2900 2902 2904 2907 2910 2912 2914 2916 2919 2921 2924 2925 2927 2929 2932 2935 2937 2940 2943 2946 2949 2953 2957 2962 2967 2971 2975
2910 2911 2913 2914 2912 2909 2910 2916 2905 2904 2902 2900 2896 2896 2896 2895 2896 2897 2898 2899 2901 2904 2906 2907 2909 2913 2916 2918 2920 2922 2924 2926 2929 2931 2933 2935 2938 2940 2943 2947 2952 2956 2960 2963
2913 2912 2915 2914 2912 2913 2912 2909 2906 2903 2900 2897 2895 2894 2891 2891 2890 2891 2893 2893 2893 2896 2898 2899 2901 2905 2909 2911 2913 2916 2917 2920 2923 2926 2927 2929 2931 2933 2934 2937 2941 2945 2949 2953
2919 2914 2911 2911 2910 2909 2907 2904 2902 2901 2897 2894 2893 2892 2890 2887 2886 2886 2886 2887 2889 2891 2892 2893 2894 2895 2900 2901 2905 2908 2908 2913 2916 2918 2921 2923 2925 2926 2927 2929 2933 2936 2940 2943
2914 2910 2908 2907 2906 2906 2904 2903 2899 2897 2895 2893 2890 2888 2885 2883 2880 2880 2881 2882 2883 2884 2887 2887 2888 2888 2890 2892 2894 2896 2900 2904 2907 2910 2912 2915 2917 2919 2921 2922 2926 2928 2931 2935
2908 2907 2906 2905 2903 2903 2901 2900 2898 2895 2891 2889 2887 2883 2880 2878 2878 2877 2876 2877 2878 2877 2879 2878 2879 2878 2880 2882 2883 2885 2888 2893 2896 2899 2902 2905 2908 2911 2913 2916 2918 2921 2924 2928
2905 2904 2903 2902 2900 2899 2898 2896 2894 2893 2891 2887 2883 2880 2878 2875 2872 2872 2870 2868 2868 2871 2873 2872 2870 2869 2869 2870 2872 2874 2876 2880 2883 2887 2892 2895 2898 2902 2905 2908 2910 2912 2915 2919
2902 2901 2899 2898 2897 2895 2894 2892 2891 2888 2886 2884 2880 2876 2873 2871 2867 2864 2862 2862 2861 2862 2864 2864 2864 2863 2861 2859 2861 2862 2864 2868 2871 2875 2879 2884 2888 2892 2896 2899 2902 2904 2907 2911
2899 2898 2897 2895 2893 2892 2890 2889 2887 2885 2881 2879 2877 2873 2870 2867 2864 2861 2859 2858 2857 2856 2855 2856 2857 2856 2854 2854 2852 2852 2854 2857 2861 2865 2869 2873 2878 2881 2885 2889 2893 2897 2901 2904
2896 2895 2893 2892 2890 2888 2887 2886 2883 2882 2880 2877 2874 2871 2868 2864 2861 2858 2856 2854 2853 2851 2850 2849 2849 2850 2848 2846 2845 2845 2846 2848 2852 2856 2860 2864 2868 2871 2875 2880 2884 2888 2891 2894
2894 2892 2891 2889 2888 2886 2884 2882 2881 2878 2876 2874 2871 2868 2864 2861 2857 2854 2852 2850 2848 2847 2845 2844 2842 2841 2841 2842 2840 2839 2839 2840 2843 2846 2850 2854 2858 2862 2866 2871 2875 2879 2882 2885
2891 2890 2888 2886 2885 2883 2881 2879 2878 2875 2873 2871 2868 2866 2863 2859 2856 2853 2851 2849 2847 2845 2844 2842 2840 2838 2838 2836 2834 2834 2834 2834 2836 2839 2842 2845 2849 2852 2856 2860 2865 2868 2871 2875
2888 2886 2884 2883 2881 2880 2878 2876 2875 2873 2871 2868 2866 2864 2861 2859 2856 2854 2852 2849 2847 2845 2843 2841 2840 2837 2836 2835 2833 2832 2831 2831 2832 2834 2836 2839 2842 2846 2851 2855 2859 2862 2866 2873
2885 2883 2881 2880 2878 2876 2875 2873 2872 2870 2868 2866 2864 2862 2860 2858 2855 2853 2851 2848 2846 2844 2842 2840 2838 2836 2834 2833 2832 2832 2831 2831 2831 2832 2833 2836 2839 2843 2848 2853 2857 2862 2868 2873
2882 2880 2878 2876 2874 2873 2872 2870 2869 2867 2866 2864 2862 2860 2858 2856 2855 2852 2850 2847 2845 2842 2840 2838 2836 2834 2833 2832 2832 2832 2832 2832 2833 2834 2835 2838 2841 2845 2850 2856 2861 2865 2870 2874
2878 2876 2875 2873 2871 2869 2868 2867 2866 2864 2863 2861 2860 2858 2856 2854 2853 2851 2849 2847 2845 2842 2839 2837 2835 2833 2832 2832 2832 2833 2833 2834 2835 2837 2838 2841 2844 2848 2853 2858 2862 2866 2869 2873
2874 2872 2871 2869 2867 2866 2864 2863 2862 2861 2860 2858 2857 2855 2854 2852 2850 2849 2847 2845 2843 2841 2839 2837 2836 2834 2834 2833 2833 2834 2835 2836 2838 2840 2842 2846 2849 2852 2855 2859 2862 2866 2869 2872
2871 2869 2867 2866 2864 2862 2861 2860 2859 2858 2857 2855 2854 2853 2851 2850 2849 2847 2846 2845 2843 2841 2839 2838 2837 2837 2836 2835 2835 2836 2837 2838 2840 2843 2846 2848 2851 2854 2857 2859 2862 2866 2870 2872
2867 2866 2864 2862 2860 2859 2857 2856 2855 2854 2853 2852 2851 2850 2849 2848 2847 2845 2844 2843 2842 2841 2840 2839 2839 2839 2839 2838 2838 2839 2840 2841 2843 2845 2847 2850 2852 2855 2857 2860 2863 2867 2870 2872
2862 2860 2859 2858 2857 2855 2854 2853 2852 2851 2850 2849 2848 2847 2846 2845 2845 2844 2843 2842 2841 2841 2840 2840 2840 2840 2840 2840 2841 2842 2843 2844 2845 2847 2849 2852 2854 2856 2858 2861 2863 2867 2870 2872
2854 2853 2852 2852 2851 2850 2849 2849 2848 2847 2846 2846 2845 2844 2844 2843 2842 2842 2841 2840 2840 2840 2840 2840 2840 2841 2842 2842 2843 2843 2845 2846 2847 2849 2850 2853 2855 2857 2859 2861 2863 2866 2868 2870
2845 2844 2843 2844 2843 2843 2844 2844 2844 2843 2842 2842 2842 2841 2841 2840 2840 2839 2839 2839 2839 2839 2840 2840 2840 2841 2842 2842 2843 2844 2845 2846 2848 2850 2851 2853 2855 2857 2859 2861 2863 2865 2867 2868